Location: Newark
(33.4453°N, 112.0669°W)
Time: 02:36:39
(UTC+00:00)

Altair - Visible Passes

Search period start: 23 February 2020 00:00
Search period end: 04 March 2020 00:00
Orbit: 1502 x 1682 km, 47.2° (Epoch: 22 February)

Date Brightness Start Highest point End Pass type
(mag) Time Alt. Az. Time Alt. Az. Time Alt. Az.
23 Feb 8.8 09:56:42 30° NNE 09:56:42 30° NNE 10:02:02 10° NE visible
23 Feb 8.5 11:54:42 24° NW 11:59:56 38° N 12:09:07 10° ENE visible
24 Feb 9.1 09:32:46 25° NE 09:32:46 25° NE 09:36:45 10° NE visible
24 Feb 8.5 11:30:46 29° NNW 11:34:35 38° N 11:43:41 10° ENE visible
24 Feb 8.0 13:31:03 10° NW 13:40:56 68° NNE 13:51:03 10° ESE visible
25 Feb 9.3 09:08:50 20° NE 09:08:50 20° NE 09:11:28 10° NE visible
25 Feb 8.4 11:06:50 33° NNW 11:09:13 37° N 11:18:15 10° ENE visible
25 Feb 8.0 13:05:53 10° NW 13:15:40 64° NNE 13:25:43 10° ESE visible
26 Feb 9.6 08:44:55 14° NE 08:44:55 14° NE 08:46:12 10° NE visible
26 Feb 8.4 10:42:56 36° N 10:43:51 36° N 10:52:49 10° ENE visible
26 Feb 8.0 12:40:57 11° NW 12:50:25 61° NNE 13:00:23 10° ESE visible
27 Feb 8.5 10:19:02 36° N 10:19:02 36° N 10:27:23 10° ENE visible
27 Feb 8.0 12:17:03 16° NW 12:25:08 57° NNE 12:35:02 10° ESE visible
28 Feb 8.7 09:55:11 33° NNE 09:55:11 33° NNE 10:01:59 10° ENE visible
28 Feb 8.1 11:53:12 22° NW 11:59:51 54° NNE 12:09:39 10° ESE visible
29 Feb 8.9 09:31:22 28° NE 09:31:22 28° NE 09:36:35 10° ENE visible
29 Feb 8.1 11:29:24 28° NW 11:34:33 51° NNE 11:44:15 10° E visible
29 Feb 7.7 13:30:01 10° WNW 13:39:45 66° SW 13:49:44 10° SE visible
01 Mar 9.2 04:42:18 10° SSW 04:43:24 14° SSW 04:43:24 14° SSW visible
01 Mar 9.2 09:07:37 22° NE 09:07:37 22° NE 09:11:12 10° ENE visible
01 Mar 8.2 11:05:39 36° NNW 11:09:16 49° NNE 11:18:51 10° E visible
01 Mar 7.7 13:04:48 10° WNW 13:14:34 71° SW 13:24:37 10° SE visible
02 Mar 8.7 04:17:21 10° SSW 04:20:33 24° SSW 04:20:33 24° SSW visible
02 Mar 9.5 08:43:55 16° NE 08:43:55 16° NE 08:45:48 10° ENE visible
02 Mar 8.2 10:41:57 42° N 10:43:57 46° NNE 10:53:26 10° E visible
02 Mar 7.6 12:39:59 11° NW 12:49:23 77° SW 12:59:28 10° SE visible
03 Mar 8.2 03:52:26 10° SSW 03:57:46 34° S 03:57:46 34° S visible
03 Mar 9.8 08:20:18 10° ENE 08:20:18 10° ENE 08:20:27 10° ENE visible
03 Mar 8.2 10:18:21 44° NNE 10:18:39 44° NNE 10:28:01 10° E visible
03 Mar 7.5 12:16:22 18° NW 12:24:12 82° SW 12:34:18 10° SE visible
